Total_Precipitation_Accumulation
1.28 1.26 1.28 1.18 1.10 1.06 1.08 1.29 1.63 1.44 0.87 0.56 0.53 0.59 0.75 0.93 1.14 1.17 1.13 1.28 1.31 1.30 1.37 1.43 1.49 1.59 1.84 2.23 2.97 3.90 4.68 4.91 4.65 4.12 3.87 4.12 4.54 5.09
1.37 1.32 1.29 1.23 1.18 1.13 1.13 1.17 1.37 1.61 1.26 0.62 0.54 0.58 0.74 0.91 1.12 1.13 1.11 1.27 1.30 1.34 1.34 1.40 1.50 1.59 1.75 1.95 2.31 3.01 3.84 4.55 4.87 4.87 4.68 4.58 4.75 5.08
1.53 1.47 1.35 1.27 1.30 1.25 1.22 1.23 1.25 1.43 1.46 0.78 0.57 0.63 0.79 0.93 1.03 1.06 1.08 1.13 1.14 1.27 1.33 1.40 1.41 1.48 1.62 1.81 2.01 2.40 3.07 3.80 4.43 4.89 5.18 5.14 5.09 5.08
1.63 1.57 1.47 1.42 1.40 1.34 1.38 1.35 1.26 1.26 1.44 1.16 0.76 0.70 0.77 0.87 0.95 1.03 1.09 1.12 1.11 1.23 1.29 1.37 1.46 1.52 1.60 1.73 1.90 2.07 2.45 3.00 3.62 4.24 4.69 4.85 4.95 5.22
1.72 1.74 1.67 1.63 1.59 1.52 1.52 1.51 1.43 1.34 1.38 1.42 1.06 0.84 0.86 0.95 1.08 1.14 1.17 1.24 1.25 1.35 1.38 1.37 1.49 1.59 1.60 1.70 1.86 1.99 2.09 2.34 2.78 3.48 4.20 4.48 4.54 4.70
1.74 1.78 1.81 1.83 1.80 1.79 1.85 1.81 1.79 1.79 1.70 1.65 1.38 1.11 1.05 1.06 1.21 1.30 1.30 1.28 1.35 1.37 1.47 1.43 1.50 1.58 1.60 1.61 1.65 1.72 1.89 2.22 2.60 3.05 3.64 4.04 4.13 4.18
1.79 1.77 1.80 1.95 2.12 2.29 2.41 2.31 2.22 2.29 2.21 2.10 1.84 1.55 1.36 1.34 1.41 1.36 1.42 1.37 1.41 1.41 1.41 1.35 1.32 1.32 1.40 1.54 1.68 1.73 1.82 2.05 2.32 2.71 3.18 3.64 3.94 4.02
1.86 1.77 1.78 1.90 2.00 2.17 2.35 2.34 2.34 2.53 2.62 2.47 2.21 1.90 1.52 1.39 1.47 1.64 1.76 1.84 1.78 1.49 1.47 1.51 1.41 1.44 1.45 1.47 1.71 1.79 1.85 2.07 2.27 2.46 2.84 3.23 3.62 3.99
1.65 1.65 1.67 1.72 1.87 1.75 1.91 1.98 2.00 2.13 2.32 2.44 2.45 2.03 1.73 1.60 1.86 2.09 2.09 2.11 1.84 1.61 1.77 1.95 1.77 1.70 1.61 1.68 1.87 1.77 1.84 1.98 2.18 2.34 2.51 2.85 3.24 3.67
1.47 1.48 1.50 1.51 1.64 1.85 1.91 1.84 1.67 1.64 1.82 1.99 2.16 2.03 1.92 1.98 2.33 2.68 2.75 2.76 2.41 2.04 1.97 2.27 2.05 1.96 1.87 1.82 1.91 1.82 1.83 1.89 1.99 2.17 2.37 2.59 2.85 3.20
1.46 1.48 1.51 1.42 1.68 2.01 2.05 1.94 1.69 1.52 1.61 1.88 2.10 2.21 2.34 2.52 2.81 3.22 3.38 3.47 3.24 2.65 2.30 2.37 2.24 2.13 2.12 2.07 2.02 1.97 1.87 1.89 1.92 2.01 2.20 2.42 2.66 2.93
1.47 1.50 1.72 1.70 1.84 1.97 1.94 2.00 1.98 1.64 1.45 1.53 1.65 1.80 1.89 2.11 2.54 2.79 3.06 3.38 3.29 3.03 2.45 2.39 2.42 2.44 2.68 2.30 2.00 1.87 1.84 1.95 1.96 1.92 1.96 2.10 2.39 2.54
1.64 1.63 1.68 1.88 1.87 1.92 1.95 1.92 2.00 1.86 1.71 1.71 1.69 1.65 1.73 1.88 2.09 2.34 2.66 3.09 3.33 3.08 2.44 2.64 2.89 2.71 2.80 2.53 2.12 1.92 1.81 1.78 1.75 1.80 1.89 1.96 2.11 2.32
1.71 1.56 1.65 1.91 1.89 1.93 1.88 1.95 2.07 2.02 1.87 1.85 1.75 1.63 1.61 1.74 1.83 2.04 2.37 2.57 2.73 2.77 2.46 2.73 3.24 2.92 2.93 2.65 2.33 2.16 1.98 1.88 1.74 1.64 1.61 1.85 1.98 2.18
1.73 1.86 1.81 1.85 1.84 1.74 1.75 1.84 1.85 1.76 1.84 1.85 1.70 1.52 1.43 1.53 1.67 1.87 2.15 2.40 2.49 2.50 2.49 2.54 2.86 2.92 3.05 2.92 2.41 2.17 2.21 2.17 1.89 1.73 1.64 1.60 1.65 1.87
1.77 1.86 1.85 1.74 1.70 1.67 1.67 1.65 1.59 1.67 1.78 1.74 1.57 1.46 1.44 1.54 1.69 1.81 2.05 2.27 2.55 2.54 2.48 2.54 2.77 3.12 3.23 2.73 2.48 2.30 2.10 2.26 2.08 1.84 1.72 1.66 1.62 1.67
2.00 1.95 1.85 1.76 1.76 1.66 1.56 1.52 1.50 1.61 1.70 1.58 1.57 1.60 1.62 1.67 1.72 1.74 1.92 2.10 2.34 2.28 2.31 2.52 2.76 2.98 3.15 3.03 2.84 2.40 2.12 2.05 2.00 1.94 1.90 1.90 1.88 1.82
2.01 1.96 1.74 1.59 1.56 1.51 1.50 1.48 1.43 1.42 1.44 1.50 1.58 1.61 1.65 1.67 1.71 1.72 1.85 2.04 2.15 2.08 2.11 2.30 2.61 2.93 3.15 3.30 3.01 2.51 2.21 2.11 2.04 1.99 1.94 2.03 2.10 2.02
1.68 1.58 1.50 1.44 1.41 1.39 1.39 1.38 1.36 1.28 1.34 1.48 1.56 1.59 1.62 1.67 1.70 1.72 1.79 1.92 2.00 1.99 2.04 2.17 2.48 2.84 2.96 2.90 2.93 2.57 2.37 2.26 2.15 2.16 2.09 2.02 2.10 2.11
1.43 1.41 1.41 1.39 1.40 1.42 1.38 1.35 1.33 1.32 1.39 1.47 1.53 1.55 1.60 1.69 1.71 1.66 1.67 1.79 1.89 1.91 1.96 2.05 2.31 2.69 2.97 2.77 2.74 2.68 2.58 2.44 2.29 2.28 2.21 2.08 2.07 2.14
1.33 1.33 1.34 1.42 1.43 1.40 1.36 1.34 1.35 1.35 1.34 1.39 1.44 1.49 1.53 1.64 1.65 1.53 1.55 1.65 1.78 1.83 1.86 1.82 1.95 2.29 2.66 2.75 2.68 2.49 2.56 2.71 2.52 2.39 2.32 2.33 2.29 2.24
1.22 1.25 1.26 1.31 1.40 1.42 1.38 1.36 1.36 1.32 1.32 1.37 1.37 1.39 1.43 1.54 1.58 1.51 1.54 1.64 1.64 1.65 1.70 1.71 1.77 2.07 2.52 2.80 2.64 2.37 2.40 2.60 2.79 2.64 2.46 2.45 2.69 2.88
1.26 1.25 1.23 1.23 1.29 1.35 1.39 1.37 1.33 1.25 1.24 1.30 1.33 1.33 1.38 1.47 1.45 1.48 1.51 1.55 1.59 1.59 1.64 1.73 1.77 1.96 2.27 2.46 2.58 2.48 2.35 2.36 2.46 2.61 2.80 2.55 2.24 2.23